| time (UTC) | temp F | wind direction | speed MPH | gust MPH | rain 1hr in | rain 24hr in | rain mn in | humidity % | barometer mb |
| 20260505212426 | 66 | 0 | 0.0 | 2.0 | 0.00 | 0.00 | 0.00 | 58 | 1015.4 |
| 20260505210425 | 67 | 0 | 0.0 | 0.0 | 0.00 | 0.00 | 0.00 | 56 | |
| 20260505204425 | 65 | 0 | 0.0 | 1.0 | 0.00 | 0.00 | 0.00 | 58 | 1015.4 |
| 20260505202425 | 65 | 0 | 0.0 | 1.0 | 0.00 | 0.00 | 0.00 | 62 | 1015.5 |
| 20260505200427 | 65 | 0 | 0.0 | 1.0 | 0.00 | 0.00 | 0.00 | 60 | |
| 20260505194425 | 66 | 0 | 0.0 | 0.0 | 0.00 | 0.00 | 0.00 | 59 | 1015.6 |
| 20260505192426 | 65 | 0 | 0.0 | 0.0 | 0.00 | 0.00 | 0.00 | 59 | |
| 20260505190425 | 64 | 135 | 0.0 | 1.0 | 0.00 | 0.00 | 0.00 | 63 | |
| 20260505184425 | 62 | 67 | 0.0 | 1.0 | 0.00 | 0.00 | 0.00 | 64 | 1015.6 |
| 20260505182426 | 61 | 0 | 0.0 | 0.0 | 0.00 | 0.00 | 0.00 | 67 | 1015.4 |
| 20260505180426 | 60 | 0 | 0.0 | 0.0 | 0.00 | 0.00 | 0.00 | 67 | |
| 20260505174426 | 60 | 0 | 0.0 | 0.0 | 0.00 | 0.00 | 0.00 | 66 | |
| 20260505172428 | 60 | 0 | 0.0 | 0.0 | 0.00 | 0.00 | 0.00 | 65 | 1015.3 |
| 20260505170427 | 59 | 0 | 0.0 | 0.0 | 0.00 | 0.00 | 0.00 | 66 | |
| 20260505164428 | 58 | 0 | 0.0 | 0.0 | 0.00 | 0.00 | 0.00 | 67 | |
| 20260505160425 | 57 | 180 | 1.0 | 2.0 | 0.00 | 0.00 | 0.00 | 72 | |
| 20260505152426 | 55 | 360 | 1.0 | 3.0 | 0.00 | 0.00 | 0.00 | 76 | 1014.6 |
| 20260505140428 | 53 | 0 | 0.0 | 0.0 | 0.00 | 0.00 | 0.00 | 84 | 1014.1 |
| 20260505124426 | 52 | 0 | 0.0 | 0.0 | 0.00 | 0.00 | 0.00 | 85 | 1014.6 |
| 20260505122430 | 52 | 0 | 0.0 | 0.0 | 0.00 | 0.00 | 0.00 | 84 | |
| 20260505120425 | 52 | 0 | 0.0 | 0.0 | 0.00 | 0.00 | 0.00 | 87 | 1014.4 |
| 20260505114425 | 52 | 0 | 0.0 | 0.0 | 0.00 | 0.00 | 0.00 | 87 | |
| 20260505112426 | 52 | 0 | 0.0 | 0.0 | 0.00 | 0.00 | 0.00 | 84 | |
| 20260505110425 | 53 | 0 | 0.0 | 0.0 | 0.00 | 0.00 | 0.00 | 81 | 1014.6 |
| 20260505100426 | 53 | 0 | 0.0 | 0.0 | 0.00 | 0.00 | 0.00 | 79 | |
| 20260505094426 | 54 | 0 | 0.0 | 0.0 | 0.00 | 0.00 | 0.00 | 76 | |
| 20260505092425 | 54 | 0 | 0.0 | 0.0 | 0.00 | 0.00 | 0.00 | 72 | 1014.5 |
| 20260505090425 | 54 | 0 | 0.0 | 0.0 | 0.00 | 0.00 | 0.00 | 69 | 1014.7 |
| 20260505084426 | 54 | 0 | 0.0 | 1.0 | 0.00 | 0.00 | 0.00 | 69 | 1015.1 |
| 20260505080426 | 55 | 0 | 0.0 | 1.0 | 0.00 | 0.00 | 0.00 | 70 | 1015.2 |
| 20260505074426 | 55 | 0 | 0.0 | 0.0 | 0.00 | 0.00 | 0.00 | 74 | 1015.2 |
| 20260505072426 | 55 | 0 | 0.0 | 1.0 | 0.00 | 0.00 | 0.00 | 76 | 1014.9 |
| 20260505070426 | 55 | 0 | 0.0 | 0.0 | 0.00 | 0.00 | 0.00 | 76 | |
| 20260505064425 | 55 | 0 | 0.0 | 0.0 | 0.00 | 0.00 | 0.00 | 78 | |
| 20260505062425 | 56 | 0 | 0.0 | 0.0 | 0.00 | 0.00 | 0.00 | 77 | 1014.9 |
| 20260505060425 | 56 | 0 | 0.0 | 0.0 | 0.00 | 0.00 | 0.00 | 75 | |
| 20260505052425 | 57 | 0 | 0.0 | 1.0 | 0.00 | 0.00 | 0.00 | 73 | |
| 20260505050425 | 57 | 0 | 0.0 | 0.0 | 0.00 | 0.00 | 0.00 | 73 | |
| 20260505040425 | 58 | 0 | 0.0 | 0.0 | 0.00 | 0.00 | 0.00 | 67 | 1014.0 |
| 20260505034428 | 59 | 22 | 0.0 | 1.0 | 0.00 | 0.00 | 0.00 | 64 | 1013.9 |
| 20260505032426 | 60 | 0 | 0.0 | 1.0 | 0.00 | 0.00 | 0.00 | 59 | |
| 20260505024427 | 61 | 0 | 0.0 | 0.0 | 0.00 | 0.00 | 0.00 | 56 | |
| 20260505022426 | 62 | 0 | 0.0 | 2.0 | 0.00 | 0.00 | 0.00 | 55 | |
| 20260505020425 | 63 | 0 | 0.0 | 2.0 | 0.00 | 0.00 | 0.00 | 52 | |
| 20260505014426 | 64 | 149 | 1.0 | 2.0 | 0.00 | 0.00 | 0.00 | 52 | |
| 20260505012426 | 66 | 53 | 0.0 | 2.0 | 0.00 | 0.00 | 0.00 | 51 | |
| 20260505010426 | 66 | 0 | 0.0 | 1.0 | 0.00 | 0.00 | 0.00 | 51 | |
| 20260505004426 | 66 | 62 | 0.0 | 2.0 | 0.00 | 0.00 | 0.00 | 52 | |
| 20260505002426 | 66 | 360 | 1.0 | 1.0 | 0.00 | 0.00 | 0.00 | 54 | 1013.9 |
| 20260505000425 | 66 | 0 | 0.0 | 0.0 | 0.00 | 0.00 | 0.00 | 53 | |
| 20260504234425 | 67 | 0 | 0.0 | 0.0 | 0.00 | 0.00 | 0.00 | 51 | |
| 20260504232426 | 68 | 0 | 0.0 | 0.0 | 0.00 | 0.00 | 0.00 | 49 | 1013.7 |
| 20260504230427 | 68 | 0 | 0.0 | 1.0 | 0.00 | 0.00 | 0.00 | 49 | 1013.6 |
| 20260504224427 | 69 | 0 | 0.0 | 2.0 | 0.00 | 0.00 | 0.00 | 48 | |
| 20260504222425 | 68 | 360 | 1.0 | 2.0 | 0.00 | 0.00 | 0.00 | 50 | |
| 20260504220425 | 69 | 117 | 0.0 | 1.0 | 0.00 | 0.00 | 0.00 | 46 | 1014.3 |